Hourly Data Report for July 20, 2004

SHERBROOKE A
QUEBEC

45°26'00.000" N
71°41'00.000" W
241.40 m
7028124
71610
YSC

Download Data

Hourly Data (July 2004)
Hourly Data Report for July 20, 2004
TIME
LST
Temp Definition
°C
Dew Point Definition
°C
Rel Hum Definition
%
Precip. Amount Definition
mm

Wind Dir Definition
10's deg

Wind Spd Definition
km/h
Visibility Definition
km
Stn Press Definition
kPa
Hmdx Definition


Wind Chill Definition


Weather Definition


00:00 15.5 14.8 96     0 1.4 98.08      
01:00 15.5 15.0 97   8 6 2.7 98.08      
02:00 14.6 14.2 97     0 0.5 98.06      
03:00 14.7 14.4 98   9 6 3.5 98.08      
04:00 14.3 13.8 97   12 6 4.8 98.09      
05:00 15.0 14.6 97     0 4.8 98.10      
06:00 16.0 15.3 96   14 4 5.6 98.19      
07:00 17.8 16.7 93     0 12.9 98.25     Cloudy
08:00 18.8 17.0 89   22 6 12.9 98.30     Rain
09:00 20.5 18.3 87   25 9 16.1 98.27 27   Cloudy
10:00 21.0 18.9 88   26 7 16.1 98.29 28   Rain
11:00 22.9 18.5 76   23 15 19.3 98.26 29   Cloudy
12:00 23.6 16.3 64   24 9 19.3 98.21 28   Cloudy
13:00 25.1 17.8 64   24 11 19.3 98.17 31   Mostly Cloudy
14:00 25.7 18.3 64   24 11 24.1 98.18 32   Mostly Cloudy
15:00 17.9 16.3 90   1 13 3.2 98.27     Thunderstorms,Heavy Rain Showers, Fog
16:00 20.8 18.3 86   14 9 19.3 98.22 27   Mostly Cloudy
17:00 21.7 19.2 86   12 4 15.0 98.26 29    
18:00 22.0 19.8 87   19 6 15.0 98.29 29    
19:00 20.1 18.7 92     0 15.0 98.34 27    
20:00 17.7 16.9 95     0 8.0 98.37      
21:00 16.4 15.6 95   14 4 11.3 98.42      
22:00 15.7 15.2 97     0 1.9 98.42      
23:00 15.4 14.8 96   13 4 5.6 98.44      

Notes on Data Quality.

Legend

  • E = Estimated
  • M = Missing
  • NA = Not Available*
  • [empty] = Indicates an unobserved value
Date modified: